DW7533 Weather Reports


time (UTC)temp
C
wind
direction
speed
KPH
gust
KPH
rain 1hr
cm
rain 24hr
cm
rain mn
cm
humidity
%
barometer
mb
20260503204306 7 233 0.0 0.0 0.00 0.03 0.00 98 1028.4
20260503203805 7 233 1.6 1.6 0.00 0.03 0.00 98 1028.4
20260503203305 7 233 0.0 1.6 0.00 0.03 0.00 98 1028.4
20260503202804 7 233 0.0 1.6 0.00 0.03 0.00 98 1028.4
20260503202305 7 233 0.0 0.0 0.00 0.03 0.00 98 1028.4
20260503201305 7 233 0.0 0.0 0.00 0.03 0.00 98 1028.3
20260503200806 7 233 0.0 1.6 0.00 0.03 0.00 98 1028.3
20260503200307 7 233 0.0 1.6 0.00 0.03 0.00 98 1028.3
20260503195806 7 233 0.0 1.6 0.00 0.03 0.00 98 1028.3
20260503195305 7 233 0.0 1.6 0.00 0.03 0.00 98 1028.3
20260503194806 7 233 0.0 0.0 0.00 0.03 0.00 98 1028.3
20260503194306 7 233 0.0 1.6 0.00 0.03 0.00 98 1028.3
20260503193807 7 233 0.0 3.2 0.00 0.03 0.00 97 1028.5
20260503192805 7 233 0.0 1.6 0.00 0.03 0.00 98 1028.5
20260503192305 8 233 0.0 1.6 0.00 0.03 0.00 97 1028.5
20260503191805 8 233 0.0 1.6 0.00 0.03 0.00 97 1028.5
20260503190805 8 233 0.0 0.0 0.00 0.03 0.00 97 1028.5
20260503190304 8 233 0.0 1.6 0.00 0.03 0.00 97 1028.5
20260503185805 8 233 0.0 1.6 0.00 0.03 0.00 98 1028.5
20260503184304 8 233 1.6 1.6 0.00 0.03 0.00 98 1028.5
20260503183805 8 233 0.0 1.6 0.00 0.03 0.00 98 1028.5
20260503183305 8 233 1.6 3.2 0.00 0.03 0.00 98 1028.5
20260503182805 8 233 0.0 1.6 0.00 0.03 0.00 98 1028.4
20260503182306 8 233 0.0 1.6 0.00 0.03 0.00 97 1028.4
20260503181805 8 233 0.0 1.6 0.00 0.03 0.00 98 1028.4
20260503181304 8 233 0.0 1.6 0.00 0.03 0.00 97 1028.4
20260503180804 8 233 0.0 1.6 0.00 0.03 0.00 97 1028.4
20260503180305 8 233 0.0 1.6 0.00 0.03 0.00 97 1028.4
20260503175805 8 233 0.0 1.6 0.00 0.03 0.00 97 1028.4
20260503175305 8 233 0.0 1.6 0.00 0.03 0.00 97 1028.4
20260503174805 8 233 0.0 1.6 0.00 0.03 0.00 97 1028.4
20260503174305 8 233 0.0 1.6 0.00 0.03 0.00 97 1028.4
20260503173805 8 233 0.0 0.0 0.00 0.03 0.00 97 1028.1
20260503173305 8 233 0.0 1.6 0.00 0.03 0.00 96 1028.1
20260503172805 8 233 0.0 1.6 0.00 0.03 0.00 96 1028.1
20260503172305 8 233 0.0 1.6 0.00 0.03 0.00 96 1028.1
20260503171806 8 233 1.6 1.6 0.00 0.03 0.00 96 1028.1
20260503171306 8 233 0.0 0.0 0.00 0.03 0.00 96 1028.1
20260503170305 8 233 0.0 0.0 0.00 0.03 0.00 96 1028.1
20260503150805 10 246 0.0 1.6 0.03 0.03 0.03 95 1028.4
20260503150305 10 246 0.0 0.0 0.03 0.03 0.03 95 1028.4
20260503140305 12 246 0.0 1.6 0.00 0.03 0.00 95 1028.2
20260503131305 12 246 0.0 0.0 0.00 0.03 0.00 94 1028.1
20260503130806 13 246 0.0 1.6 0.00 0.03 0.00 94 1028.1
20260503130304 13 246 0.0 1.6 0.00 0.03 0.00 94 1027.8
20260503090304 18 204 3.2 8.0 0.00 0.03 0.00 82 1025.9
20260503081306 19 206 3.2 8.0 0.00 0.03 0.00 76 1025.9
20260503080805 18 220 4.8 8.0 0.00 0.03 0.00 76 1025.9
20260503080306 18 207 4.8 8.0 0.00 0.03 0.00 76 1025.9
20260503072306 19 209 0.0 1.6 0.00 0.03 0.00 72 1025.9
20260503071806 19 209 1.6 3.2 0.00 0.03 0.00 71 1025.9
20260503070805 20 162 0.0 3.2 0.00 0.03 0.00 69 1025.9
20260503054305 20 178 6.4 16.1 0.00 0.03 0.00 70 1026.1
20260503053306 20 54 1.6 4.8 0.00 0.03 0.00 71 1026.1
20260503052804 19 142 1.6 4.8 0.00 0.03 0.00 70 1026.1
20260503052305 19 181 1.6 12.9 0.00 0.03 0.00 71 1027.3
20260503051804 19 160 1.6 4.8 0.00 0.03 0.00 71 1027.3
20260503051305 20 203 4.8 11.3 0.00 0.03 0.00 70 1027.3
20260503050304 20 137 1.6 4.8 0.00 0.03 0.00 71 1027.3
20260503045306 20 230 1.6 4.8 0.00 0.03 0.00 71 1027.3
20260503044806 19 199 3.2 4.8 0.00 0.03 0.00 72 1027.3
20260503044305 18 169 4.8 9.7 0.00 0.03 0.00 73 1027.3
20260503043805 19 185 3.2 4.8 0.00 0.03 0.00 73 1027.3
20260503043304 19 170 1.6 4.8 0.00 0.03 0.00 76 1027.3
20260503042804 18 160 1.6 4.8 0.00 0.03 0.00 75 1027.3
20260503042305 18 145 4.8 8.0 0.00 0.03 0.00 74 1027.3
20260503041804 19 131 1.6 4.8 0.00 0.03 0.00 74 1027.3
20260503041305 19 205 1.6 4.8 0.00 0.03 0.00 73 1027.3
20260503040805 19 104 3.2 8.0 0.00 0.03 0.00 72 1027.3
20260503040306 19 98 4.8 11.3 0.00 0.03 0.00 73 1027.3
20260503035805 18 186 1.6 9.7 0.00 0.03 0.00 78 1027.3
20260503035306 18 203 3.2 4.8 0.00 0.03 0.00 78 1027.3
20260503034805 18 131 4.8 12.9 0.00 0.03 0.00 78 1027.4
20260503034306 17 108 3.2 8.0 0.00 0.03 0.00 80 1027.4
20260503033305 17 105 3.2 8.0 0.00 0.03 0.00 80 1027.5
20260503032806 17 67 4.8 11.3 0.00 0.03 0.00 79 1027.7
20260503031305 17 176 1.6 4.8 0.00 0.03 0.00 82 1027.7
20260503030804 17 166 1.6 4.8 0.00 0.03 0.00 83 1027.7
20260503030305 17 48 1.6 4.8 0.00 0.03 0.00 85 1027.7
20260503025805 16 186 0.0 4.8 0.00 0.03 0.00 85 1027.7
20260503025305 16 217 1.6 3.2 0.00 0.03 0.00 86 1027.8
20260503024805 16 190 1.6 3.2 0.00 0.03 0.00 87 1027.8
20260503024304 16 207 1.6 4.8 0.00 0.03 0.00 87 1028.1
20260503023805 16 149 1.6 4.8 0.00 0.03 0.00 86 1028.1
20260503023305 16 205 3.2 4.8 0.00 0.03 0.00 85 1028.1
20260503021806 16 91 1.6 11.3 0.00 0.03 0.00 89 1028.1
20260503020304 15 243 0.0 1.6 0.00 0.03 0.00 94 1028.1
20260503015805 15 243 0.0 1.6 0.00 0.03 0.00 94 1028.1
20260503015305 15 243 0.0 3.2 0.00 0.03 0.00 96 1028.1
20260503014805 15 243 1.6 3.2 0.00 0.03 0.00 96 1028.1
20260503014305 14 299 0.0 1.6 0.00 0.03 0.00 98 1028.1
20260503013804 14 299 0.0 1.6 0.00 0.03 0.00 98 1028.1
20260503013304 13 299 1.6 3.2 0.00 0.03 0.00 98 1028.1
20260503012804 13 18 1.6 4.8 0.00 0.03 0.00 99 1028.1
20260503012305 13 266 0.0 1.6 0.00 0.03 0.00 100 1028.0
20260503011805 13 266 1.6 3.2 0.00 0.03 0.00 100 1028.0
20260503011304 12 266 0.0 0.0 0.00 0.03 0.00 100 1028.0
20260503010805 12 266 0.0 3.2 0.00 0.03 0.00 100 1028.0
20260503005305 12 266 0.0 0.0 0.00 0.03 0.00 100 1028.0
20260503004305 11 345 0.0 3.2 0.00 0.03 0.00 100 1027.8
20260503003804 11 345 0.0 1.6 0.00 0.03 0.00 100 1027.8
20260503002804 11 345 0.0 1.6 0.00 0.03 0.00 100 1027.8
20260503002305 11 345 0.0 3.2 0.00 0.03 0.00 100 1027.8
20260503001804 11 345 0.0 3.2 0.00 0.03 0.00 100 1027.8
20260503001304 11 345 1.6 1.6 0.00 0.03 0.00 100 1027.8
20260503000806 11 345 0.0 1.6 0.00 0.03 0.00 100 1027.7
20260503000305 10 345 0.0 0.0 0.00 0.03 0.00 100 1027.7
20260502235805 10 345 0.0 1.6 0.00 0.03 0.00 100 1027.0
20260502235305 10 345 0.0 1.6 0.00 0.03 0.00 99 1027.0
20260502234305 10 345 0.0 1.6 0.00 0.03 0.00 99 1027.0
20260502233806 10 345 0.0 1.6 0.00 0.03 0.00 99 1027.0
20260502233305 10 345 0.0 1.6 0.00 0.03 0.00 99 1027.0
20260502232804 10 345 0.0 3.2 0.00 0.03 0.00 99 1027.0
20260502232305 10 340 1.6 3.2 0.00 0.03 0.00 99 1027.0
20260502231806 10 306 0.0 0.0 0.00 0.03 0.00 99 1027.0
20260502231306 10 306 0.0 1.6 0.00 0.03 0.00 99 1026.5
20260502230805 10 306 0.0 1.6 0.00 0.03 0.00 99 1026.5
20260502230306 10 340 0.0 1.6 0.00 0.03 0.00 99 1026.5
20260502225805 10 340 1.6 3.2 0.00 0.03 0.00 99 1026.5
20260502225305 10 340 1.6 1.6 0.00 0.03 0.00 99 1026.5
20260502224306 10 340 0.0 0.0 0.00 0.03 0.00 99 1026.5
20260502223805 10 340 0.0 0.0 0.00 0.03 0.00 99 1026.5
20260502222805 10 340 0.0 0.0 0.00 0.03 0.00 99 1026.5
20260502222305 10 340 0.0 0.0 0.00 0.03 0.00 99 1026.5
20260502221805 10 340 0.0 0.0 0.00 0.03 0.00 99 1026.5
20260502221304 10 340 0.0 0.0 0.00 0.03 0.00 99 1026.5
20260502220804 10 340 0.0 0.0 0.00 0.03 0.00 99 1026.5
20260502220304 10 340 0.0 1.6 0.00 0.03 0.00 99 1026.5
20260502215805 10 340 1.6 1.6 0.00 0.03 0.00 99 1026.5
20260502214305 10 340 0.0 3.2 0.00 0.03 0.00 99 1025.7
20260502213805 10 340 1.6 1.6 0.00 0.03 0.00 99 1025.7
20260502213305 10 340 1.6 3.2 0.00 0.03 0.00 99 1025.7
20260502212806 10 309 1.6 4.8 0.00 0.03 0.00 99 1025.7
20260502211804 10 12 0.0 0.0 0.00 0.03 0.00 99 1025.7
20260502211306 10 12 0.0 0.0 0.00 0.03 0.00 99 1025.7
20260502210805 10 12 0.0 1.6 0.00 0.03 0.00 99 1025.7
20260502205805 10 12 0.0 0.0 0.00 0.03 0.00 98 1025.7
20260502205306 10 12 0.0 1.6 0.00 0.03 0.00 98 1025.7
20260502204805 10 12 0.0 1.6 0.00 0.03 0.00 98 1025.7